Weather in Kretingos

Lithuania     55°53′20″N   21°14′30″E
temp.,
°C
wind,
m/s
gust,
m/s
humid.,
%
clouds,
%
prec.,
mm/h
press.,
hPa
HPBL,
m
28 july, wed
wed2800:00+18sw22935 0.0 101023
03:00+18sw3696100 0.0 1010131
06:00+18sw369636 0.0 1010126
09:00+23sw346684 0.1 1010559
12:00+26wsw5648100 0.0 10101261
15:00+26sw5648100 0.0 10101084
18:00+25wsw45498 0.0 1009960
21:00+21sw3570100 0.0 1009122
29 july, thu
thu2900:00+18wsw3592100 0.1 1008108
03:00+18sw349459 0.1 100888
06:00+17wsw37910 0.0 1008184
09:00+22wsw57650 0.0 1007874
12:00+24sw79511 0.0 10071473
15:00+23wsw7105972 0.3 10071392
18:00+22wsw6105826 0.2 10071196
21:00+18wsw6107485 0.6 1007703
30 july, fri
fri3000:00+18wsw610635 0.1 1007537
03:00+18wsw813625 0.3 1006724
06:00+18wsw812645 0.2 10051004
09:00+18wsw9137165 1.1 10051395
12:00+19wsw10146626 1.9 10041611
15:00+20wsw11145695 2.1 10041850
18:00+20wsw101658100 0.5 10031702
21:00+19wsw11167017 0.5 10021296
31 july, sat
sat3100:00+19wsw10157992 0.1 1002919
03:00+19wsw813833 0.4 1003781
06:00+18wsw5108219 0.2 1003393
09:00+21wsw686160 0.3 10041182
12:00+23sw684992 0.0 10031113
15:00+25sw7104694 0.0 10021429
18:00+19wsw59761 0.6 1002684
21:00+19wsw813665 0.9 10021145
1 august, sun
sun100:00+17wsw9148381 0.8 1002768
03:00+17wsw81386100 2.0 1002720
06:00+17w6118450 3.9 1002490
09:00+18w7107193 4.1 10041089
12:00+19w7106398 0.3 10051551
15:00+21w7105468 0.4 10061637
18:00+20wsw686141 0.1 10071369
21:00+17wsw357477 0.2 1007144